Miscellaneous Local Product
Issued by NWS Hastings, NE

Home | Current Version | Previous Version | Text Only | Print | Product List | Glossary Off
Versions: 1 2 3 4 5 6 7 8 9 10 11 12 13 14 15 16 17 18 19 20 21 22 23 24 25 26 27 28 29 30 31 32 33 34 35 36 37 38 39 40 41 42 43 44 45 46 47 48 49 50

000
AXUS43 KGID 301602
MISGRI

GID CWA HOURLY WEATHER ROUNDUP
NATIONAL WEATHER SERVICE HASTINGS NE
1100 AM CDT SAT AUG 30 2014

NOTE: "FAIR" INDICATES FEW OR NO CLOUDS BELOW 12,000 FEET WITH NO
SIGNIFICANT WEATHER AND/OR OBSTRUCTIONS TO VISIBILITY.

...SOUTH CENTRAL NEBRASKA...

CITY           SKY/WX    TMP DP  RH WIND       PRES   REMARKS
GRAND ISLAND     N/A    N/A N/A N/A MISG      30.00S
HASTINGS       SUNNY     73  61  65 E5        30.00S
KEARNEY        SUNNY     72  63  73 E5        30.01S
ORD            MOSUNNY   64  59  83 VRB3      29.99F
YORK           SUNNY     70 N/A N/A N7        29.99S
AURORA         SUNNY     71  64  78 E5        29.99S
LEXINGTON      SUNNY     71  63  76 SE8       30.01S
HOLDREGE       SUNNY     71  63  76 E7        30.01S
HEBRON         SUNNY     75  62  65 CALM      29.99S

...NEBRASKA PANHANDLE...

CITY           SKY/WX    TMP DP  RH WIND       PRES   REMARKS
CHADRON        SUNNY     78  56  46 SW14      29.89F
ALLIANCE       SUNNY     73  57  57 S18       29.97F
SCOTTSBLUFF    SUNNY     74  54  49 SE9       29.96F
SIDNEY         SUNNY     73  55  53 S17       30.02F

...WESTERN AND NORTH CENTRAL NEBRASKA...

CITY           SKY/WX    TMP DP  RH WIND       PRES   REMARKS
VALENTINE      SUNNY     68  59  73 SE9       29.98F
AINSWORTH      SUNNY     66  60  79 SE5       29.99F
ONEILL         SUNNY     67  61  79 CALM      29.99F
BROKEN BOW     SUNNY     70  61  73 SE5       30.01R
IMPERIAL       SUNNY     71  59  65 SE13      30.01F
NORTH PLATTE   SUNNY     70  59  68 SE9       30.01F
MCCOOK         SUNNY     73  60  63 E9        30.01F

...EASTERN NEBRASKA...

CITY           SKY/WX    TMP DP  RH WIND       PRES   REMARKS
NORFOLK        SUNNY     69  60  73 W5        29.98R
SO SIOUX CITY  PTSUNNY   67  59  75 NW12      29.95R
TEKAMAH        MOSUNNY   72  64  76 N6        29.95S
COLUMBUS       SUNNY     70  63  78 CALM      29.99S
ALBION         SUNNY     67  59  74 NW3       29.99F
OMAHA EPPLEY   CLOUDY    68  65  90 N7        29.96R FOG
OFFUTT AFB     CLOUDY    68  68 100 W5        29.96R
MILLARD        CLOUDY    68  65  91 W6        29.96R
LINCOLN        SUNNY     75  65  70 CALM      29.98R
NEBRASKA CITY  SUNNY     74  70  86 NW6       29.96S
BEATRICE       SUNNY     74  68  79 CALM      29.97S
FALLS CITY     SUNNY     78  68  71 N7        29.94S

...NORTHERN KANSAS...

CITY           SKY/WX    TMP DP  RH WIND       PRES   REMARKS
GOODLAND       SUNNY     78  52  40 SW10      30.04F
HILL CITY      SUNNY     75  62  64 SE9       30.00F
NORTON         SUNNY     75  57  53 E10       29.99F
PHILLIPSBURG   SUNNY     75  61  60 E7        29.99F
SMITH CENTER   MOSUNNY   73  63  68 SE8       30.00S
BELOIT         SUNNY     77  63  61 CALM      29.98S
HAYS           SUNNY     81  57  44 SE8       30.00S
RUSSELL        SUNNY     77  62  59 SE9       29.99S
CONCORDIA      SUNNY     76  66  71 E5        29.98S
SALINA         SUNNY     80  64  58 NE3       29.98S
TOPEKA         SUNNY     80  70  71 CALM      29.95S



USA.gov is the U.S. government's official web portal to all federal, state and local government web resources and services.